Time,TemperatureF,DewpointF,PressureIn,WindDirection,WindDirectionDegrees,WindSpeedMPH,WindSpeedGustMPH,Humidity,HourlyPrecipIn,Conditions,Clouds,dailyrainin,SoftwareType,DateUTC
2013-01-30 00:02:00,40.8,39.2,30.05,SE,135,1.0,2.0,94,0.00,,,-99.99,WeatherLink 5.7,2013-01-30 05:02:00,
2013-01-30 00:11:00,40.9,39.3,30.05,SE,135,1.0,3.0,94,0.00,,,-99.99,WeatherLink 5.7,2013-01-30 05:11:00,
2013-01-30 00:21:00,40.9,39.3,30.04,SE,135,0.0,2.0,94,0.00,,,-99.99,WeatherLink 5.7,2013-01-30 05:21:00,
2013-01-30 00:31:00,40.8,39.5,30.03,SE,135,0.0,2.0,95,0.00,,,-99.99,WeatherLink 5.7,2013-01-30 05:31:00,
2013-01-30 00:41:00,41.0,39.9,30.03,SE,135,1.0,2.0,96,0.00,,,-99.99,WeatherLink 5.7,2013-01-30 05:41:00,
2013-01-30 00:51:00,40.9,40.1,30.03,SE,135,1.0,2.0,97,0.00,,,-99.99,WeatherLink 5.7,2013-01-30 05:51:00,
2013-01-30 01:01:00,41.1,40.6,30.02,SE,135,0.0,2.0,98,0.00,,,-99.99,WeatherLink 5.7,2013-01-30 06:01:00,
2013-01-30 01:11:00,41.3,41.3,30.00,SE,135,2.0,3.0,100,0.00,,,-99.99,WeatherLink 5.7,2013-01-30 06:11:00,
2013-01-30 01:21:00,41.5,41.5,30.00,SE,135,1.0,4.0,100,0.00,,,-99.99,WeatherLink 5.7,2013-01-30 06:21:00,
2013-01-30 01:31:00,41.8,41.8,30.00,ESE,112,2.0,4.0,100,0.00,,,-99.99,WeatherLink 5.7,2013-01-30 06:31:00,
2013-01-30 01:41:00,41.9,41.9,30.00,ESE,112,2.0,3.0,100,0.00,,,-99.99,WeatherLink 5.7,2013-01-30 06:41:00,
2013-01-30 01:51:00,42.0,42.0,29.99,ESE,112,1.0,3.0,100,0.00,,,-99.99,WeatherLink 5.7,2013-01-30 06:51:00,
2013-01-30 02:01:00,42.3,42.3,30.00,ESE,112,2.0,4.0,100,0.00,,,-99.99,WeatherLink 5.7,2013-01-30 07:01:00,
2013-01-30 02:11:00,42.3,42.3,29.99,ESE,112,1.0,3.0,100,0.00,,,-99.99,WeatherLink 5.7,2013-01-30 07:11:00,
2013-01-30 02:21:00,42.3,42.3,29.99,ESE,112,1.0,3.0,100,0.00,,,-99.99,WeatherLink 5.7,2013-01-30 07:21:00,
2013-01-30 02:31:00,42.1,42.1,29.98,ESE,112,1.0,2.0,100,0.00,,,-99.99,WeatherLink 5.7,2013-01-30 07:31:00,
2013-01-30 02:41:00,41.9,41.9,29.99,ESE,112,0.0,2.0,100,0.00,,,-99.99,WeatherLink 5.7,2013-01-30 07:41:00,
2013-01-30 02:51:00,41.7,41.7,29.98,ESE,112,0.0,2.0,100,0.00,,,-99.99,WeatherLink 5.7,2013-01-30 07:51:00,
2013-01-30 03:01:00,41.5,41.5,29.97,ESE,112,1.0,2.0,100,0.00,,,-99.99,WeatherLink 5.7,2013-01-30 08:01:00,
2013-01-30 03:11:00,41.3,41.3,29.97,North,-999,0.0,0.0,100,0.00,,,-99.99,WeatherLink 5.7,2013-01-30 08:11:00,
2013-01-30 03:21:00,41.2,41.2,29.96,ESE,112,0.0,2.0,100,0.00,,,-99.99,WeatherLink 5.7,2013-01-30 08:21:00,
2013-01-30 03:31:00,40.9,40.9,29.95,ESE,112,0.0,1.0,100,0.00,,,-99.99,WeatherLink 5.7,2013-01-30 08:31:00,
2013-01-30 03:41:00,40.7,40.7,29.94,North,-999,0.0,1.0,100,0.00,,,-99.99,WeatherLink 5.7,2013-01-30 08:41:00,
2013-01-30 03:51:00,40.7,40.7,29.94,ESE,112,0.0,1.0,100,0.00,,,-99.99,WeatherLink 5.7,2013-01-30 08:51:00,
2013-01-30 04:01:00,40.6,40.6,29.94,North,-999,0.0,0.0,100,0.00,,,-99.99,WeatherLink 5.7,2013-01-30 09:01:00,
2013-01-30 04:11:00,40.6,40.6,29.92,ESE,112,0.0,2.0,100,0.00,,,-99.99,WeatherLink 5.7,2013-01-30 09:11:00,
2013-01-30 04:21:00,40.6,40.6,29.92,ESE,112,1.0,2.0,100,0.00,,,-99.99,WeatherLink 5.7,2013-01-30 09:21:00,
2013-01-30 04:31:00,40.5,40.5,29.91,ESE,112,0.0,2.0,100,0.00,,,-99.99,WeatherLink 5.7,2013-01-30 09:31:00,
2013-01-30 04:41:00,40.8,40.8,29.92,ESE,112,0.0,1.0,100,0.00,,,-99.99,WeatherLink 5.7,2013-01-30 09:41:00,
2013-01-30 04:51:00,40.7,40.7,29.92,North,-999,0.0,0.0,100,0.00,,,-99.99,WeatherLink 5.7,2013-01-30 09:51:00,
2013-01-30 05:01:00,40.8,40.8,29.92,North,-999,0.0,1.0,100,0.00,,,-99.99,WeatherLink 5.7,2013-01-30 10:01:00,
2013-01-30 05:11:00,41.0,41.0,29.91,ESE,112,0.0,1.0,100,0.00,,,-99.99,WeatherLink 5.7,2013-01-30 10:11:00,
2013-01-30 05:21:00,40.8,40.8,29.91,ESE,112,0.0,1.0,100,0.00,,,-99.99,WeatherLink 5.7,2013-01-30 10:21:00,
2013-01-30 05:31:00,40.7,40.7,29.91,ESE,112,0.0,2.0,100,0.00,,,-99.99,WeatherLink 5.7,2013-01-30 10:31:00,
2013-01-30 05:41:00,40.5,40.5,29.91,ESE,112,0.0,1.0,100,0.00,,,-99.99,WeatherLink 5.7,2013-01-30 10:41:00,
2013-01-30 05:51:00,40.5,40.5,29.90,North,-999,0.0,0.0,100,0.00,,,-99.99,WeatherLink 5.7,2013-01-30 10:51:00,
2013-01-30 06:01:00,40.5,40.5,29.89,North,-999,0.0,0.0,100,0.00,,,-99.99,WeatherLink 5.7,2013-01-30 11:01:00,
2013-01-30 06:11:00,40.5,40.5,29.90,North,-999,0.0,0.0,100,0.00,,,-99.99,WeatherLink 5.7,2013-01-30 11:11:00,
2013-01-30 06:21:00,40.5,40.5,29.89,ESE,112,0.0,2.0,100,0.01,,,-99.99,WeatherLink 5.7,2013-01-30 11:21:00,
2013-01-30 06:31:00,40.2,40.2,29.88,ESE,112,0.0,2.0,100,0.01,,,-99.99,WeatherLink 5.7,2013-01-30 11:31:00,
2013-01-30 06:41:00,40.2,40.2,29.88,ESE,112,0.0,2.0,100,0.01,,,-99.99,WeatherLink 5.7,2013-01-30 11:41:00,
2013-01-30 06:51:00,40.2,40.2,29.87,North,-999,0.0,0.0,100,0.01,,,-99.99,WeatherLink 5.7,2013-01-30 11:51:00,
2013-01-30 07:01:00,40.3,40.3,29.88,North,-999,0.0,0.0,100,0.01,,,-99.99,WeatherLink 5.7,2013-01-30 12:01:00,
2013-01-30 07:11:00,40.3,40.3,29.88,ESE,112,0.0,1.0,100,0.01,,,-99.99,WeatherLink 5.7,2013-01-30 12:11:00,
2013-01-30 07:21:00,40.4,40.4,29.88,North,-999,0.0,0.0,100,0.00,,,-99.99,WeatherLink 5.7,2013-01-30 12:21:00,
2013-01-30 07:31:00,40.6,40.6,29.87,North,-999,0.0,0.0,100,0.00,,,-99.99,WeatherLink 5.7,2013-01-30 12:31:00,
2013-01-30 07:41:00,40.6,40.6,29.87,North,-999,0.0,1.0,100,0.00,,,-99.99,WeatherLink 5.7,2013-01-30 12:41:00,
2013-01-30 07:51:00,40.7,-99.9,29.86,ESE,112,0.0,1.0,-999,0.00,,,-99.99,WeatherLink 5.7,2013-01-30 12:51:00,
2013-01-30 08:01:00,40.6,-99.9,29.85,North,-999,0.0,0.0,-999,0.00,,,-99.99,WeatherLink 5.7,2013-01-30 13:01:00,
2013-01-30 08:11:00,40.7,-99.9,29.86,ESE,112,0.0,2.0,-999,0.00,,,-99.99,WeatherLink 5.7,2013-01-30 13:11:00,
2013-01-30 08:21:00,41.1,41.1,29.85,ESE,112,0.0,2.0,100,0.00,,,-99.99,WeatherLink 5.7,2013-01-30 13:21:00,
2013-01-30 08:31:00,41.3,41.3,29.85,North,-999,0.0,0.0,100,0.00,,,-99.99,WeatherLink 5.7,2013-01-30 13:31:00,
2013-01-30 08:41:00,41.5,41.5,29.84,ESE,112,0.0,2.0,100,0.00,,,-99.99,WeatherLink 5.7,2013-01-30 13:41:00,
2013-01-30 08:51:00,41.4,41.4,29.84,ESE,112,0.0,2.0,100,0.00,,,-99.99,WeatherLink 5.7,2013-01-30 13:51:00,
2013-01-30 09:01:00,41.5,41.5,29.84,ESE,112,0.0,2.0,100,0.00,,,-99.99,WeatherLink 5.7,2013-01-30 14:01:00,
2013-01-30 09:11:00,41.9,41.9,29.83,ESE,112,0.0,1.0,100,0.00,,,-99.99,WeatherLink 5.7,2013-01-30 14:11:00,
2013-01-30 09:21:00,42.3,42.3,29.83,North,-999,0.0,0.0,100,0.00,,,-99.99,WeatherLink 5.7,2013-01-30 14:21:00,
2013-01-30 09:31:00,42.7,42.7,29.83,ESE,112,0.0,1.0,100,0.00,,,-99.99,WeatherLink 5.7,2013-01-30 14:31:00,
2013-01-30 09:41:00,42.9,42.9,29.83,North,-999,0.0,0.0,100,0.00,,,-99.99,WeatherLink 5.7,2013-01-30 14:41:00,
2013-01-30 09:51:00,43.1,43.1,29.81,North,-999,0.0,0.0,100,0.00,,,-99.99,WeatherLink 5.7,2013-01-30 14:51:00,
2013-01-30 10:01:00,43.9,43.9,29.81,ESE,112,0.0,1.0,100,0.00,,,-99.99,WeatherLink 5.7,2013-01-30 15:01:00,
2013-01-30 10:11:00,44.3,44.3,29.80,North,-999,0.0,0.0,100,0.00,,,-99.99,WeatherLink 5.7,2013-01-30 15:11:00,
2013-01-30 10:21:00,44.6,44.6,29.79,North,-999,0.0,0.0,100,0.00,,,-99.99,WeatherLink 5.7,2013-01-30 15:21:00,
2013-01-30 10:31:00,45.1,45.1,29.81,ESE,112,0.0,1.0,100,0.00,,,-99.99,WeatherLink 5.7,2013-01-30 15:31:00,
2013-01-30 10:42:00,45.5,45.5,29.80,North,-999,0.0,1.0,100,0.00,,,-99.99,WeatherLink 5.7,2013-01-30 15:42:00,
2013-01-30 10:51:00,45.6,45.6,29.80,ESE,112,0.0,2.0,100,0.00,,,-99.99,WeatherLink 5.7,2013-01-30 15:51:00,
2013-01-30 11:01:00,45.9,45.9,29.79,ESE,112,0.0,1.0,100,0.00,,,-99.99,WeatherLink 5.7,2013-01-30 16:01:00,
2013-01-30 11:12:00,46.0,46.0,29.78,North,-999,0.0,0.0,100,0.00,,,-99.99,WeatherLink 5.7,2013-01-30 16:12:00,
2013-01-30 11:22:00,46.0,46.0,29.77,North,-999,0.0,1.0,100,0.00,,,-99.99,WeatherLink 5.7,2013-01-30 16:22:00,
2013-01-30 11:31:00,46.2,46.2,29.76,ESE,112,0.0,1.0,100,0.00,,,-99.99,WeatherLink 5.7,2013-01-30 16:31:00,
2013-01-30 11:42:00,46.7,46.7,29.74,ESE,112,1.0,3.0,100,0.00,,,-99.99,WeatherLink 5.7,2013-01-30 16:42:00,
2013-01-30 11:51:00,47.1,47.1,29.74,ESE,112,1.0,2.0,100,0.00,,,-99.99,WeatherLink 5.7,2013-01-30 16:51:00,
2013-01-30 12:01:00,47.5,47.5,29.73,ESE,112,2.0,3.0,100,0.00,,,-99.99,WeatherLink 5.7,2013-01-30 17:01:00,
2013-01-30 12:11:00,47.9,47.9,29.73,ESE,112,2.0,3.0,100,0.00,,,-99.99,WeatherLink 5.7,2013-01-30 17:11:00,
2013-01-30 12:21:00,48.0,48.0,29.73,ESE,112,1.0,3.0,100,0.00,,,-99.99,WeatherLink 5.7,2013-01-30 17:21:00,
2013-01-30 12:31:00,47.8,47.8,29.71,ESE,112,0.0,2.0,100,0.00,,,-99.99,WeatherLink 5.7,2013-01-30 17:31:00,
2013-01-30 12:41:00,48.0,48.0,29.70,ESE,112,1.0,2.0,100,0.00,,,-99.99,WeatherLink 5.7,2013-01-30 17:41:00,
2013-01-30 12:51:00,47.9,47.9,29.69,ESE,112,0.0,2.0,100,0.00,,,-99.99,WeatherLink 5.7,2013-01-30 17:51:00,
2013-01-30 13:01:00,47.7,47.7,29.68,ESE,112,0.0,2.0,100,0.00,,,-99.99,WeatherLink 5.7,2013-01-30 18:01:00,
2013-01-30 13:11:00,47.6,47.6,29.67,ESE,112,0.0,2.0,100,0.00,,,-99.99,WeatherLink 5.7,2013-01-30 18:11:00,
2013-01-30 13:20:00,48.0,48.0,29.67,ESE,112,0.0,1.0,100,0.00,,,-99.99,WeatherLink 5.7,2013-01-30 18:20:00,
2013-01-30 13:30:00,47.9,47.9,29.66,North,-999,0.0,0.0,100,0.00,,,-99.99,WeatherLink 5.7,2013-01-30 18:30:00,
2013-01-30 13:40:00,48.4,48.4,29.65,ESE,112,0.0,2.0,100,0.00,,,-99.99,WeatherLink 5.7,2013-01-30 18:40:00,
2013-01-30 13:50:00,48.8,48.8,29.65,North,-999,0.0,0.0,100,0.00,,,-99.99,WeatherLink 5.7,2013-01-30 18:50:00,
2013-01-30 14:00:00,49.1,49.1,29.64,ESE,112,0.0,1.0,100,0.00,,,-99.99,WeatherLink 5.7,2013-01-30 19:00:00,
2013-01-30 14:10:00,49.5,49.5,29.63,North,-999,0.0,0.0,100,0.00,,,-99.99,WeatherLink 5.7,2013-01-30 19:10:00,
2013-01-30 14:20:00,49.5,49.5,29.63,North,-999,0.0,0.0,100,0.00,,,-99.99,WeatherLink 5.7,2013-01-30 19:20:00,
2013-01-30 14:30:00,50.1,50.1,29.62,North,-999,0.0,0.0,100,0.00,,,-99.99,WeatherLink 5.7,2013-01-30 19:30:00,
2013-01-30 14:40:00,50.8,50.8,29.62,North,-999,0.0,0.0,100,0.00,,,-99.99,WeatherLink 5.7,2013-01-30 19:40:00,
2013-01-30 14:50:00,51.3,51.3,29.62,SSW,202,0.0,2.0,100,0.00,,,-99.99,WeatherLink 5.7,2013-01-30 19:50:00,
2013-01-30 15:00:00,51.8,51.8,29.62,East,90,0.0,2.0,100,0.00,,,-99.99,WeatherLink 5.7,2013-01-30 20:00:00,
2013-01-30 15:10:00,52.7,52.7,29.62,SE,135,1.0,3.0,100,0.00,,,-99.99,WeatherLink 5.7,2013-01-30 20:10:00,
2013-01-30 15:20:00,53.6,53.6,29.61,NE,45,1.0,5.0,100,0.00,,,-99.99,WeatherLink 5.7,2013-01-30 20:20:00,
2013-01-30 15:30:00,54.7,54.7,29.60,SE,135,1.0,4.0,100,0.00,,,-99.99,WeatherLink 5.7,2013-01-30 20:30:00,
2013-01-30 15:40:00,54.9,54.9,29.60,ENE,67,1.0,5.0,100,0.00,,,-99.99,WeatherLink 5.7,2013-01-30 20:40:00,
2013-01-30 15:50:00,56.0,56.0,29.59,SE,135,1.0,6.0,100,0.00,,,-99.99,WeatherLink 5.7,2013-01-30 20:50:00,
2013-01-30 16:00:00,56.2,56.2,29.58,ESE,112,1.0,5.0,100,0.00,,,-99.99,WeatherLink 5.7,2013-01-30 21:00:00,
2013-01-30 16:10:00,56.3,56.3,29.58,South,180,1.0,5.0,100,0.00,,,-99.99,WeatherLink 5.7,2013-01-30 21:10:00,
2013-01-30 16:22:00,56.7,56.7,29.59,East,90,2.0,7.0,100,0.00,,,-99.99,WeatherLink 5.7,2013-01-30 21:22:00,
2013-01-30 16:31:00,57.2,57.2,29.58,NNE,22,2.0,8.0,100,0.00,,,-99.99,WeatherLink 5.7,2013-01-30 21:31:00,
2013-01-30 16:41:00,57.6,57.6,29.58,ENE,67,2.0,4.0,100,0.00,,,-99.99,WeatherLink 5.7,2013-01-30 21:41:00,
2013-01-30 16:51:00,57.4,57.4,29.59,East,90,1.0,6.0,100,0.00,,,-99.99,WeatherLink 5.7,2013-01-30 21:51:00,
2013-01-30 17:01:00,56.9,56.9,29.61,North,0,1.0,4.0,100,0.03,,,-99.99,WeatherLink 5.7,2013-01-30 22:01:00,
2013-01-30 17:11:00,56.8,56.8,29.61,WNW,292,1.0,5.0,100,0.05,,,-99.99,WeatherLink 5.7,2013-01-30 22:11:00,
2013-01-30 17:21:00,56.6,56.6,29.61,South,180,0.0,4.0,100,0.06,,,-99.99,WeatherLink 5.7,2013-01-30 22:21:00,
2013-01-30 17:31:00,55.9,55.9,29.61,East,90,0.0,2.0,100,0.07,,,-99.99,WeatherLink 5.7,2013-01-30 22:31:00,
2013-01-30 17:41:00,55.1,55.1,29.61,SE,135,0.0,1.0,100,0.08,,,-99.99,WeatherLink 5.7,2013-01-30 22:41:00,
2013-01-30 17:51:00,54.6,54.6,29.61,SE,135,0.0,1.0,100,0.08,,,-99.99,WeatherLink 5.7,2013-01-30 22:51:00,
2013-01-30 18:01:00,54.3,54.3,29.61,SE,135,0.0,2.0,100,0.06,,,-99.99,WeatherLink 5.7,2013-01-30 23:01:00,
2013-01-30 18:11:00,54.3,54.3,29.60,SE,135,0.0,1.0,100,0.04,,,-99.99,WeatherLink 5.7,2013-01-30 23:11:00,
2013-01-30 18:21:00,54.3,54.3,29.59,North,-999,0.0,1.0,100,0.03,,,-99.99,WeatherLink 5.7,2013-01-30 23:21:00,
2013-01-30 18:31:00,54.4,54.4,29.59,SE,135,0.0,2.0,100,0.02,,,-99.99,WeatherLink 5.7,2013-01-30 23:31:00,
2013-01-30 18:41:00,54.0,54.0,29.58,SE,135,1.0,2.0,100,0.01,,,-99.99,WeatherLink 5.7,2013-01-30 23:41:00,
2013-01-30 18:51:00,54.1,54.1,29.58,SE,135,0.0,2.0,100,0.01,,,-99.99,WeatherLink 5.7,2013-01-30 23:51:00,
2013-01-30 19:01:00,54.2,54.2,29.59,SE,135,0.0,2.0,100,0.00,,,-99.99,WeatherLink 5.7,2013-01-31 00:01:00,
2013-01-30 19:11:00,54.1,54.1,29.58,SE,135,1.0,3.0,100,0.00,,,-99.99,WeatherLink 5.7,2013-01-31 00:11:00,
2013-01-30 19:21:00,53.7,53.7,29.59,WSW,247,0.0,1.0,100,0.00,,,-99.99,WeatherLink 5.7,2013-01-31 00:21:00,
2013-01-30 19:31:00,53.5,53.5,29.58,WSW,247,0.0,2.0,100,0.00,,,-99.99,WeatherLink 5.7,2013-01-31 00:31:00,
2013-01-30 19:41:00,53.3,53.3,29.58,NNW,337,0.0,3.0,100,0.00,,,-99.99,WeatherLink 5.7,2013-01-31 00:41:00,
2013-01-30 19:52:00,53.2,53.2,29.56,ESE,112,0.0,3.0,100,0.00,,,-99.99,WeatherLink 5.7,2013-01-31 00:52:00,
2013-01-30 20:02:00,53.0,53.0,29.56,South,180,1.0,3.0,100,0.00,,,-99.99,WeatherLink 5.7,2013-01-31 01:02:00,
2013-01-30 20:12:00,53.0,53.0,29.55,ESE,112,1.0,3.0,100,0.01,,,-99.99,WeatherLink 5.7,2013-01-31 01:12:00,
2013-01-30 20:22:00,52.8,52.8,29.55,SSW,202,1.0,4.0,100,0.02,,,-99.99,WeatherLink 5.7,2013-01-31 01:22:00,
2013-01-30 20:32:00,53.1,53.1,29.53,East,90,0.0,2.0,100,0.03,,,-99.99,WeatherLink 5.7,2013-01-31 01:32:00,
2013-01-30 20:42:00,52.6,52.6,29.54,North,-999,0.0,0.0,100,0.03,,,-99.99,WeatherLink 5.7,2013-01-31 01:42:00,
2013-01-30 20:52:00,52.7,52.7,29.53,East,90,0.0,2.0,100,0.04,,,-99.99,WeatherLink 5.7,2013-01-31 01:52:00,
2013-01-30 21:02:00,52.6,52.6,29.51,East,90,0.0,1.0,100,0.04,,,-99.99,WeatherLink 5.7,2013-01-31 02:02:00,
2013-01-30 21:12:00,52.2,52.2,29.51,East,90,0.0,2.0,100,0.03,,,-99.99,WeatherLink 5.7,2013-01-31 02:12:00,
2013-01-30 21:21:00,52.2,52.2,29.51,East,90,0.0,1.0,100,0.02,,,-99.99,WeatherLink 5.7,2013-01-31 02:21:00,
2013-01-30 21:32:00,52.1,52.1,29.49,East,90,0.0,1.0,100,0.02,,,-99.99,WeatherLink 5.7,2013-01-31 02:32:00,
2013-01-30 21:41:00,51.8,51.8,29.48,East,90,0.0,3.0,100,0.02,,,-99.99,WeatherLink 5.7,2013-01-31 02:41:00,
2013-01-30 21:51:00,52.3,52.3,29.46,East,90,0.0,2.0,100,0.01,,,-99.99,WeatherLink 5.7,2013-01-31 02:51:00,
2013-01-30 22:02:00,52.7,52.7,29.46,East,90,0.0,2.0,100,0.01,,,-99.99,WeatherLink 5.7,2013-01-31 03:02:00,
2013-01-30 22:11:00,52.4,52.4,29.44,East,90,0.0,2.0,100,0.01,,,-99.99,WeatherLink 5.7,2013-01-31 03:11:00,
2013-01-30 22:22:00,52.0,52.0,29.43,East,90,0.0,3.0,100,0.01,,,-99.99,WeatherLink 5.7,2013-01-31 03:22:00,
2013-01-30 22:32:00,52.1,52.1,29.42,East,90,0.0,3.0,100,0.00,,,-99.99,WeatherLink 5.7,2013-01-31 03:32:00,
2013-01-30 22:41:00,52.4,52.4,29.42,WSW,247,1.0,3.0,100,0.01,,,-99.99,WeatherLink 5.7,2013-01-31 03:41:00,
2013-01-30 22:51:00,52.7,52.7,29.42,North,0,1.0,5.0,100,0.03,,,-99.99,WeatherLink 5.7,2013-01-31 03:51:00,
2013-01-30 23:02:00,53.3,53.3,29.42,North,0,1.0,5.0,100,0.04,,,-99.99,WeatherLink 5.7,2013-01-31 04:02:00,
2013-01-30 23:11:00,53.8,53.8,29.39,NNE,22,0.0,2.0,100,0.06,,,-99.99,WeatherLink 5.7,2013-01-31 04:11:00,
2013-01-30 23:21:00,54.1,54.1,29.39,WSW,247,0.0,3.0,100,0.07,,,-99.99,WeatherLink 5.7,2013-01-31 04:21:00,
2013-01-30 23:31:00,54.0,54.0,29.38,North,-999,0.0,0.0,100,0.07,,,-99.99,WeatherLink 5.7,2013-01-31 04:31:00,
2013-01-30 23:41:00,54.0,54.0,29.37,North,-999,0.0,1.0,100,0.06,,,-99.99,WeatherLink 5.7,2013-01-31 04:41:00,
2013-01-30 23:51:00,54.0,54.0,29.35,WNW,292,0.0,2.0,100,0.05,,,-99.99,WeatherLink 5.7,2013-01-31 04:51:00,